Hourly Weather Suhorechka

Today, 16 January, Saturday

Time Temperature Precipitation Wind Pressure Humidity
00:00 -11°C° 0 mm 5 mps 734 mmHg 92%
01:00 -11°C° 0.6 mm 6 mps 733 mmHg 92%
02:00 -11°C° 0.6 mm 6 mps 732 mmHg 93%
03:00 -12°C° 0 mm 7 mps 731 mmHg 94%
04:00 -10°C° 0.6 mm 6 mps 731 mmHg 94%
05:00 -10°C° 0.6 mm 6 mps 730 mmHg 93%
06:00 -10°C° 0.6 mm 5 mps 729 mmHg 93%
07:00 -8°C° 0.1 mm 5 mps 729 mmHg 94%
08:00 -7°C° 0.1 mm 5 mps 730 mmHg 94%
09:00 -8°C° 0 mm 6 mps 730 mmHg 93%
10:00 -11°C° 0.1 mm 7 mps 730 mmHg 92%
11:00 -12°C° 0.1 mm 8 mps 731 mmHg 91%
12:00 -14°C° 0.1 mm 9 mps 731 mmHg 91%
13:00 -15°C° 0.1 mm 9 mps 731 mmHg 90%
14:00 -16°C° 0.1 mm 8 mps 732 mmHg 90%
15:00 -17°C° 0.1 mm 8 mps 732 mmHg 90%
16:00 -16°C° 0.1 mm 8 mps 732 mmHg 91%
17:00 -16°C° 0.1 mm 8 mps 733 mmHg 91%
18:00 -16°C° 0.1 mm 8 mps 733 mmHg 92%
19:00 -15°C° 0.2 mm 8 mps 733 mmHg 92%
20:00 -15°C° 0.2 mm 8 mps 733 mmHg 92%
21:00 -13°C° 0.2 mm 8 mps 733 mmHg 93%
22:00 -13°C° 0.3 mm 8 mps 733 mmHg 93%
23:00 -13°C° 0.3 mm 7 mps 732 mmHg 93%

Tomorrow, 17 January, Sunday

Time Temperature Precipitation Wind Pressure Humidity
00:00 -13°C° 0.3 mm 7 mps 732 mmHg 93%
01:00 -14°C° 0.3 mm 7 mps 732 mmHg 93%
02:00 -15°C° 0.3 mm 7 mps 733 mmHg 93%
03:00 -15°C° 0.3 mm 7 mps 733 mmHg 93%
04:00 -17°C° 0.2 mm 7 mps 733 mmHg 93%
05:00 -18°C° 0.2 mm 7 mps 733 mmHg 93%
06:00 -19°C° 0.2 mm 7 mps 733 mmHg 92%
07:00 -19°C° 0.1 mm 7 mps 734 mmHg 93%
08:00 -20°C° 0.1 mm 6 mps 735 mmHg 93%
09:00 -21°C° 0.1 mm 6 mps 736 mmHg 93%
10:00 -21°C° 0 mm 6 mps 736 mmHg 93%
11:00 -21°C° 0 mm 6 mps 737 mmHg 93%
12:00 -21°C° 0 mm 6 mps 737 mmHg 93%
13:00 -21°C° 0 mm 5 mps 738 mmHg 94%
14:00 -22°C° 0 mm 4 mps 739 mmHg 95%
15:00 -23°C° 0 mm 4 mps 739 mmHg 96%
16:00 -23°C° 0 mm 3 mps 740 mmHg 97%
17:00 -24°C° 0 mm 3 mps 740 mmHg 98%
18:00 -24°C° 0 mm 2 mps 740 mmHg 99%
19:00 -24°C° 0 mm 2 mps 741 mmHg 99%
20:00 -25°C° 0 mm 2 mps 741 mmHg 99%
21:00 -25°C° 0 mm 2 mps 742 mmHg 99%
22:00 -26°C° 0 mm 2 mps 742 mmHg 99%
23:00 -23°C° 0 mm 1 mps 742 mmHg 99%

Day after tomorrow, 18 January, Monday

Time Temperature Precipitation Wind Pressure Humidity
00:00 -24°C° 0 mm 1 mps 743 mmHg 99%
01:00 -24°C° 0 mm 1 mps 743 mmHg 99%
02:00 -24°C° 0 mm 1 mps 743 mmHg 99%
03:00 -24°C° 0 mm 1 mps 743 mmHg 99%
04:00 -25°C° 0 mm 0 mps 743 mmHg 99%
05:00 -25°C° 0 mm 0 mps 743 mmHg 99%
06:00 -25°C° 0 mm 0 mps 743 mmHg 99%
07:00 -25°C° 0 mm 0 mps 743 mmHg 99%
08:00 -24°C° 0 mm 0 mps 744 mmHg 98%
09:00 -24°C° 0 mm 0 mps 744 mmHg 97%
10:00 -22°C° 0 mm 0 mps 744 mmHg 95%
11:00 -21°C° 0 mm 0 mps 744 mmHg 94%
12:00 -19°C° 0 mm 0 mps 744 mmHg 92%
13:00 -20°C° 0 mm 0 mps 744 mmHg 93%
14:00 -20°C° 0 mm 1 mps 743 mmHg 93%
15:00 -20°C° 0 mm 1 mps 743 mmHg 94%
16:00 -20°C° 0 mm 1 mps 743 mmHg 93%
17:00 -20°C° 0 mm 1 mps 743 mmHg 93%
18:00 -20°C° 0 mm 1 mps 743 mmHg 93%
19:00 -23°C° 0 mm 2 mps 743 mmHg 93%
20:00 -21°C° 0 mm 2 mps 742 mmHg 93%
21:00 -21°C° 0 mm 2 mps 742 mmHg 92%
22:00 -23°C° 0.1 mm 3 mps 742 mmHg 93%
23:00 -22°C° 0.1 mm 3 mps 741 mmHg 94%

19 January, Tuesday

Time Temperature Precipitation Wind Pressure Humidity
00:00 -22°C° 0.1 mm 3 mps 741 mmHg 94%
01:00 -23°C° 0.3 mm 4 mps 741 mmHg 95%
02:00 -23°C° 0.3 mm 4 mps 740 mmHg 95%
03:00 -23°C° 0.3 mm 4 mps 740 mmHg 95%
04:00 -23°C° 0.1 mm 4 mps 739 mmHg 95%
05:00 -23°C° 0.1 mm 4 mps 739 mmHg 95%
06:00 -22°C° 0.1 mm 4 mps 739 mmHg 95%
07:00 -22°C° 0.4 mm 4 mps 739 mmHg 95%
08:00 -22°C° 0.4 mm 4 mps 738 mmHg 96%
09:00 -22°C° 0.4 mm 4 mps 738 mmHg 96%
10:00 -22°C° 0.4 mm 4 mps 738 mmHg 96%
11:00 -22°C° 0.4 mm 4 mps 737 mmHg 96%
12:00 -20°C° 0.4 mm 4 mps 737 mmHg 96%
13:00 -19°C° 0.6 mm 3 mps 737 mmHg 96%
14:00 -19°C° 0.6 mm 3 mps 736 mmHg 96%
15:00 -19°C° 0.6 mm 3 mps 736 mmHg 96%
16:00 -18°C° 0.5 mm 2 mps 736 mmHg 96%
17:00 -18°C° 0.5 mm 2 mps 736 mmHg 96%
18:00 -17°C° 0.5 mm 1 mps 736 mmHg 97%
19:00 -17°C° 0.2 mm 1 mps 736 mmHg 97%
20:00 -17°C° 0.2 mm 1 mps 736 mmHg 97%
21:00 -17°C° 0.2 mm 0 mps 736 mmHg 97%
22:00 -17°C° 0.2 mm 1 mps 736 mmHg 97%
23:00 -17°C° 0.2 mm 1 mps 736 mmHg 97%

20 January, Wednesday

Time Temperature Precipitation Wind Pressure Humidity
00:00 -19°C° 0.2 mm 2 mps 736 mmHg 97%
01:00 -20°C° 0.1 mm 2 mps 736 mmHg 97%
02:00 -20°C° 0.1 mm 2 mps 736 mmHg 97%
03:00 -20°C° 0.1 mm 2 mps 736 mmHg 97%
04:00 -22°C° 0.1 mm 3 mps 737 mmHg 97%
05:00 -22°C° 0.1 mm 3 mps 737 mmHg 97%
06:00 -23°C° 0.1 mm 3 mps 737 mmHg 97%
07:00 -22°C° 0.1 mm 3 mps 738 mmHg 97%
08:00 -22°C° 0.1 mm 3 mps 738 mmHg 97%
09:00 -22°C° 0.1 mm 3 mps 738 mmHg 96%
10:00 -22°C° 0 mm 3 mps 739 mmHg 96%
11:00 -21°C° 0 mm 3 mps 739 mmHg 95%
12:00 -21°C° 0 mm 3 mps 740 mmHg 94%
13:00 -21°C° 0 mm 3 mps 740 mmHg 95%
14:00 -22°C° 0 mm 3 mps 740 mmHg 96%
15:00 -20°C° 0 mm 2 mps 741 mmHg 97%
16:00 -21°C° 0 mm 2 mps 741 mmHg 97%
17:00 -23°C° 0 mm 2 mps 741 mmHg 98%
18:00 -23°C° 0 mm 2 mps 742 mmHg 99%
19:00 -24°C° 0 mm 2 mps 742 mmHg 99%
20:00 -25°C° 0 mm 2 mps 743 mmHg 99%
21:00 -23°C° 0 mm 1 mps 743 mmHg 99%
22:00 -23°C° 0 mm 1 mps 744 mmHg 99%
23:00 -24°C° 0 mm 1 mps 744 mmHg 99%

21 January, Thursday

Time Temperature Precipitation Wind Pressure Humidity
00:00 -24°C° 0 mm 1 mps 744 mmHg 99%
01:00 -25°C° 0 mm 1 mps 745 mmHg 99%
02:00 -25°C° 0 mm 1 mps 745 mmHg 99%
03:00 -27°C° 0 mm 1 mps 745 mmHg 100%
04:00 -27°C° 0 mm 1 mps 746 mmHg 99%
05:00 -27°C° 0 mm 1 mps 746 mmHg 99%
06:00 -27°C° 0 mm 1 mps 746 mmHg 99%
07:00 -27°C° 0 mm 1 mps 746 mmHg 99%
08:00 -28°C° 0 mm 2 mps 747 mmHg 98%
09:00 -28°C° 0 mm 2 mps 747 mmHg 97%
10:00 -27°C° 0 mm 2 mps 747 mmHg 97%
11:00 -27°C° 0 mm 3 mps 747 mmHg 96%
12:00 -26°C° 0 mm 3 mps 747 mmHg 96%
13:00 -25°C° 0 mm 3 mps 747 mmHg 96%
14:00 -26°C° 0 mm 4 mps 746 mmHg 95%
15:00 -26°C° 0 mm 4 mps 746 mmHg 95%
16:00 -26°C° 0 mm 4 mps 745 mmHg 96%
17:00 -26°C° 0 mm 4 mps 745 mmHg 97%
18:00 -27°C° 0 mm 5 mps 744 mmHg 98%
19:00 -26°C° 0.1 mm 5 mps 744 mmHg 97%
20:00 -27°C° 0.1 mm 6 mps 743 mmHg 97%
21:00 -26°C° 0.1 mm 7 mps 742 mmHg 97%
22:00 -25°C° 0.9 mm 7 mps 741 mmHg 96%
23:00 -22°C° 0.9 mm 6 mps 741 mmHg 95%
Show more